Location: Unspecified
(22.6800°N, 112.2000°E)
Time: 08:45:27
(UTC+08:00)

X-37B - Pass Details

Date: 24 June 2021
Orbit: 383 x 392 km, 45.0° (Epoch: 01 July)

Event Time Altitude Azimuth Distance (km) Brightness Sun altitude
Rises 19:44:19 0° 238° (WSW) 2,246 4.9 -5.9°
Reaches altitude 10° 19:46:26 10° 244° (WSW) 1,394 3.9 -6.4°
Maximum altitude 19:49:28 47° 320° (NW) 513 1.7 -7.0°
Drops below altitude 10° 19:52:31 10° 36° (NE) 1,395 3.3 -7.6°
Sets 19:54:37 0° 42° (NE) 2,248 4.3 -8.0°
